Weather History for KDDC - May, 2012

Change the Weather History Date:

Wednesday, May 9, 2012

  Actual Average (KGCK) Record (KGCK)
Temperature  
Mean Temperature 60 °F 61 °F  
Max Temperature 80 °F 75 °F 96 °F (2011)
Min Temperature 39 °F 48 °F 34 °F (2006)
Degree Days  
Heating Degree Days 6 5  
Month to date heating degree days 58  
Since 1 July heating degree days 5120  
Cooling Degree Days 0 2  
Month to date cooling degree days 10  
Year to date cooling degree days 22  
Growing Degree Days 10 (Base 50)    
Moisture  
Dew Point 37 °F    
Average Humidity 45    
Maximum Humidity 86    
Minimum Humidity 11    
Precipitation  
Precipitation 0.00 in 0.08 in 1.37 in (1979)
Month to date precipitation 0.69  
Year to date precipitation 4.75  
Sea Level Pressure  
Sea Level Pressure 30.01 in    
Wind  
Wind Speed 4 mph (South)    
Max Wind Speed 13 mph    
Max Gust Speed -    
Visibility 9 miles    
Events      
T = Trace of Precipitation, MM = Missing Value Source: NWS Daily Summary

Daily Weather History Graph

Daily Weather History Graph

Search for Another Location

Airport or City:

Trip Planner

Search our weather history database for the weather conditions in past years. The results will help you decide how hot, cold, wet, or windy it might be!

Date:

Astronomy

May. 09, 2012 Rise Set
Actual Time 6:35 AM CDT 8:38 PM CDT
Civil Twilight 6:06 AM CDT 9:07 PM CDT
Nautical Twilight 5:30 AM CDT 9:42 PM CDT
Astronomical Twilight 4:52 AM CDT 10:20 PM CDT
Moon No Moon Rise 9:53 AM CDT (5/9)
Length of Visible Light 15h 00m
Length of Day
14h 03m
Waning Gibbous, 82% of the Moon is Illuminated
May 9
Waning Gibbous
May 12
Last Quarter
May 20
New
May 28
First Quarter
Jun 4
Full

Hourly Weather History & Observations

Time (CDT) Temp. Windchill Dew Point Humidity Pressure Visibility Wind Dir Wind Speed Gust Speed Precip Events Conditions
12:52 AM 46.0 °F - 37.9 °F 73% 30.09 in 10.0 mi Calm Calm - N/A   Clear
1:52 AM 46.9 °F - 37.9 °F 71% 30.07 in 10.0 mi Calm Calm - N/A   Clear
2:52 AM 46.0 °F 44.8 °F 37.9 °F 73% 30.07 in 9.0 mi NNW 3.5 mph - N/A   Clear
3:52 AM 45.0 °F 42.6 °F 37.0 °F 74% 30.06 in 10.0 mi NE 4.6 mph - N/A   Clear
4:52 AM 39.9 °F 36.7 °F 34.0 °F 79% 30.07 in 10.0 mi North 4.6 mph - N/A   Clear
5:52 AM 39.9 °F 37.8 °F 34.0 °F 79% 30.07 in 10.0 mi NNW 3.5 mph - N/A   Clear
6:52 AM 39.0 °F - 35.1 °F 86% 30.09 in 8.0 mi Calm Calm - N/A   Clear
7:52 AM 48.9 °F - 39.0 °F 69% 30.08 in 8.0 mi Calm Calm - N/A   Clear
8:52 AM 55.9 °F - 37.0 °F 49% 30.09 in 10.0 mi ESE 9.2 mph - N/A   Clear
9:52 AM 62.1 °F - 39.0 °F 43% 30.08 in 9.0 mi SE 4.6 mph - N/A   Clear
10:52 AM 66.0 °F - 41.0 °F 40% 30.07 in 9.0 mi SW 3.5 mph - N/A   Clear
11:52 AM 72.0 °F - 42.1 °F 34% 30.04 in 10.0 mi WNW 9.2 mph - N/A   Clear
12:52 PM 75.0 °F - 39.0 °F 27% 30.02 in 10.0 mi West 12.7 mph - N/A   Clear
1:52 PM 75.0 °F - 33.1 °F 22% 29.99 in 9.0 mi Calm Calm - N/A   Clear
2:52 PM 77.0 °F - 35.1 °F 22% 29.97 in 10.0 mi Variable 3.5 mph - N/A   Partly Cloudy
3:52 PM 79.0 °F - 35.1 °F 20% 29.95 in 10.0 mi Variable 4.6 mph - N/A   Partly Cloudy
4:52 PM 77.0 °F - 33.1 °F 20% 29.93 in 10.0 mi Variable 6.9 mph - N/A   Clear
5:52 PM 79.0 °F - 33.1 °F 19% 29.91 in 10.0 mi Variable 4.6 mph - N/A   Clear
6:52 PM 77.0 °F - 36.0 °F 23% 29.91 in 10.0 mi South 11.5 mph - N/A   Clear
7:52 PM 73.0 °F - 36.0 °F 26% 29.88 in 10.0 mi South 9.2 mph - N/A   Clear
8:52 PM 60.1 °F - 39.0 °F 46% 29.90 in 6.0 mi SSE 9.2 mph - N/A   Haze
9:52 PM 57.9 °F - 39.0 °F 49% 29.90 in 6.0 mi SSE 10.4 mph - N/A   Haze
10:52 PM 61.0 °F - 39.0 °F 44% 29.89 in 10.0 mi SSE 11.5 mph - N/A   Clear
11:52 PM 59.0 °F - 37.4 °F 45% 29.95 in 10.0 mi South 10.4 mph - N/A   Clear